Tracking 20037 objects as of 20-Nov-2019
Live streaming from Space Station
objects crossing your sky now

COSMOS 1750

Track COSMOS 1750 now!
10-day predictions
COSMOS 1750 is classified as:


NORAD ID: 16760
Int'l Code: 1986-042C
Perigee: 1,414.7 km
Apogee: 1,477.6 km
Inclination: 74.0 °
Period: 114.6 minutes
Semi major axis: 7817 km
RCS: 0.6995 m2 (medium)
Launch date: June 6, 1986
Source: Commonwealth of Independent States (former USSR) (CIS)
Launch site: PLESETSK MISSILE AND SPACE COMPLEX (PKMTR)
aabbcc
Your satellite tracking list
Your tracking list is empty




NASA's NSSDC Master Catalog

Two Line Element Set (TLE):
1 16760U 86042C   19323.89741391 -.00000005 +00000-0 +67020-4 0  9995
2 16760 074.0183 087.7035 0040226 267.9264 197.3230 12.56121270534076
Source of the keplerian elements: AFSPC